GW3695 Weather Reports


Display with metric or nautical units.
time (UTC)temp
F
wind
direction
speed
MPH
gust
MPH
rain 1hr
in
rain 24hr
in
rain mn
in
humidity
%
barometer
mb
20260504151012 0 0.0 0.0 0.00 0.00 0.00 1014.3
20260504150512 0 0.0 0.0 0.00 0.00 0.00 1014.5
20260504141002 0 0.0 0.0 0.00 0.00 0.00 1014.5
20260504140501 0 0.0 0.0 0.00 0.00 0.00 1014.5
20260504130501 0 0.0 0.0 0.00 0.00 0.00 1015.0
20260504110501 0 0.0 0.0 0.00 0.00 0.00 1015.4
20260504100507 0 0.0 0.0 0.00 0.00 0.00 1015.3
20260504081002 51 206 0.0 0.0 0.00 0.00 0.00 54 1015.6
20260504080504 51 206 0.0 0.0 0.00 0.00 0.00 53 1015.6
20260504050503 44 206 0.0 0.0 0.00 0.00 0.00 66 1016.3
20260504050006 44 206 0.0 0.0 0.00 0.00 0.00 66 1016.3
20260504045504 44 205 0.0 0.0 0.00 0.00 0.00 67 1016.2
20260504045004 44 206 0.0 0.0 0.00 0.00 0.00 66 1016.3
20260504042505 44 206 0.0 0.0 0.00 0.00 0.00 65 1016.1
20260504042004 44 206 0.0 0.0 0.00 0.00 0.00 65 1016.1
20260504041508 44 206 0.0 0.0 0.00 0.00 0.00 64 1016.2
20260504041004 44 206 0.0 0.0 0.00 0.00 0.00 64 1016.2
20260504040504 44 206 0.0 0.0 0.00 0.00 0.00 63 1016.1
20260504040010 44 206 0.0 0.0 0.00 0.00 0.00 62 1016.0
20260504035504 44 206 0.0 0.0 0.00 0.00 0.00 63 1016.1
20260504035005 44 206 0.0 0.0 0.00 0.00 0.00 62 1016.2
20260504034512 45 206 0.0 0.0 0.00 0.00 0.00 65 1016.3
20260504034004 45 206 0.0 0.0 0.00 0.00 0.00 66 1016.3
20260504033504 44 206 0.0 0.0 0.00 0.00 0.00 66 1016.3
20260504033020 44 205 0.0 0.0 0.00 0.00 0.00 68 1016.2
20260504032505 44 206 0.0 0.0 0.00 0.00 0.00 68 1016.1
20260504032005 44 206 0.0 0.0 0.00 0.00 0.00 69 1016.1
20260504031509 45 206 0.0 0.0 0.00 0.00 0.00 69 1016.1
20260504031005 45 206 0.0 0.0 0.00 0.00 0.00 69 1015.9
20260504030507 45 206 0.0 0.0 0.00 0.00 0.00 68 1015.9
20260504030008 45 206 0.0 0.0 0.00 0.00 0.00 68 1016.0
20260504025504 45 206 0.0 0.0 0.00 0.00 0.00 67 1016.1
20260504025007 45 206 0.0 0.0 0.00 0.00 0.00 67 1015.9
20260504024525 46 206 0.0 0.0 0.00 0.00 0.00 65 1015.9
20260504024007 46 206 0.0 0.0 0.00 0.00 0.00 64 1015.8
20260504023504 46 206 0.0 0.0 0.00 0.00 0.00 62 1015.7
20260504023008 46 206 0.0 0.0 0.00 0.00 0.00 62 1015.7
20260504022505 46 206 0.0 0.0 0.00 0.00 0.00 61 1015.7
20260504022007 47 206 0.0 0.0 0.00 0.00 0.00 60 1015.6
20260504021511 47 206 0.0 0.0 0.00 0.00 0.00 58 1015.6
20260504021002 47 206 0.0 0.0 0.00 0.00 0.00 58 1015.5
20260504020502 47 206 0.0 0.0 0.00 0.00 0.00 58 1015.5
20260504020004 47 206 0.0 0.0 0.00 0.00 0.00 58 1015.5
20260504015503 48 206 0.0 0.0 0.00 0.00 0.00 56 1015.4
20260504015003 48 206 0.0 0.0 0.00 0.00 0.00 56 1015.4
20260504014506 49 206 0.0 0.0 0.00 0.00 0.00 55 1015.3
20260504014003 49 206 0.0 0.0 0.00 0.00 0.00 55 1015.3
20260504013504 49 206 0.0 0.0 0.00 0.00 0.00 53 1015.3
20260504013004 49 205 0.0 0.0 0.00 0.00 0.00 53 1015.3
20260504012504 50 206 0.0 0.0 0.00 0.00 0.00 52 1015.2
20260504012005 50 206 0.0 0.0 0.00 0.00 0.00 51 1015.3
20260504011508 51 206 0.0 0.0 0.00 0.00 0.00 50 1015.2
20260504011006 51 206 0.0 0.0 0.00 0.00 0.00 48 1015.2
20260504010505 52 206 0.0 0.0 0.00 0.00 0.00 47 1015.2
20260504010014 52 206 0.0 0.0 0.00 0.00 0.00 45 1015.3
20260504005507 53 206 0.0 0.0 0.00 0.00 0.00 44 1015.2
20260504005002 53 206 0.0 0.0 0.00 0.00 0.00 44 1015.2
20260504004508 54 205 0.0 0.0 0.00 0.00 0.00 42 1015.1
20260504004003 55 206 0.0 0.0 0.00 0.00 0.00 41 1015.1
20260504003505 55 206 0.0 0.0 0.00 0.00 0.00 40 1015.0
20260504003004 56 206 0.0 0.0 0.00 0.00 0.00 38 1015.0
20260504002504 57 206 0.0 0.0 0.00 0.00 0.00 37 1015.0
20260504002004 57 206 0.0 1.0 0.00 0.00 0.00 35 1015.0
20260504001506 58 206 0.0 1.0 0.00 0.00 0.00 34 1014.9
20260504001007 58 206 0.0 0.0 0.00 0.00 0.00 34 1014.9
20260504000505 59 206 0.0 1.0 0.00 0.00 0.00 32 1014.8
20260504000010 59 206 0.0 1.0 0.00 0.00 0.00 32 1014.7
20260503235509 59 206 0.0 2.0 0.00 0.00 0.00 32 1014.7
20260503235007 60 206 0.0 3.0 0.00 0.00 0.00 31 1014.6
20260503234513 60 206 0.0 3.0 0.00 0.00 0.00 31 1014.5
20260503234005 60 206 0.0 4.0 0.00 0.00 0.00 30 1014.5
20260503233509 61 206 1.0 4.0 0.00 0.00 0.00 29 1014.5
20260503233004 61 206 1.0 4.0 0.00 0.00 0.00 29 1014.5
20260503232503 61 206 1.0 4.0 0.00 0.00 0.00 29 1014.5
20260503232002 62 206 0.0 3.0 0.00 0.00 0.00 28 1014.4
20260503231505 62 206 0.0 6.0 0.00 0.00 0.00 28 1014.2
20260503231005 62 206 1.0 6.0 0.00 0.00 0.00 28 1014.2
20260503230502 62 206 0.0 3.0 0.00 0.00 0.00 29 1014.1
20260503230009 63 206 1.0 6.0 0.00 0.00 0.00 29 1014.1
20260503225505 63 206 0.0 6.0 0.00 0.00 0.00 28 1014.2
20260503225008 63 206 0.0 7.0 0.00 0.00 0.00 27 1014.2
20260503224512 63 206 2.0 7.0 0.00 0.00 0.00 26 1014.3
20260503224008 64 206 1.0 5.0 0.00 0.00 0.00 27 1014.2
20260503223507 64 206 1.0 5.0 0.00 0.00 0.00 27 1014.3
20260503223015 64 206 1.0 10.0 0.00 0.00 0.00 27 1014.3
20260503222507 64 205 2.0 10.0 0.00 0.00 0.00 26 1014.4
20260503222010 64 206 1.0 7.0 0.00 0.00 0.00 27 1014.3
20260503221520 64 205 2.0 7.0 0.00 0.00 0.00 26 1014.4
20260503221004 65 206 2.0 7.0 0.00 0.00 0.00 26 1014.4
20260503220504 65 206 0.0 3.0 0.00 0.00 0.00 26 1014.3
20260503220008 65 206 0.0 4.0 0.00 0.00 0.00 26 1014.4
20260503215504 64 206 1.0 5.0 0.00 0.00 0.00 27 1014.4
20260503215005 64 205 1.0 6.0 0.00 0.00 0.00 26 1014.4
20260503214510 65 206 2.0 7.0 0.00 0.00 0.00 26 1014.4
20260503214006 64 205 1.0 7.0 0.00 0.00 0.00 26 1014.4
20260503213504 65 206 3.0 7.0 0.00 0.00 0.00 26 1014.5
20260503213018 66 205 1.0 4.0 0.00 0.00 0.00 26 1014.5
20260503212505 66 206 1.0 4.0 0.00 0.00 0.00 25 1014.5
20260503212009 65 205 1.0 5.0 0.00 0.00 0.00 26 1014.4
20260503211529 65 205 2.0 7.0 0.00 0.00 0.00 26 1014.4
20260503211007 65 205 1.0 7.0 0.00 0.00 0.00 26 1014.4
20260503210507 65 206 1.0 6.0 0.00 0.00 0.00 26 1014.4
20260503210022 65 206 1.0 6.0 0.00 0.00 0.00 26 1014.4
20260503205504 65 206 1.0 6.0 0.00 0.00 0.00 25 1014.5
20260503205004 65 206 2.0 6.0 0.00 0.00 0.00 26 1014.6
20260503204509 65 206 1.0 5.0 0.00 0.00 0.00 27 1014.8
20260503204003 65 205 1.0 5.0 0.00 0.00 0.00 27 1014.8
20260503203506 65 206 1.0 3.0 0.00 0.00 0.00 26 1014.9
20260503203012 65 205 1.0 5.0 0.00 0.00 0.00 27 1014.8
20260503202502 63 206 0.0 11.0 0.00 0.00 0.00 27 1015.0
20260503202003 63 206 3.0 11.0 0.00 0.00 0.00 27 1015.1
20260503201503 64 206 3.0 9.0 0.00 0.00 0.00 26 1015.1
20260503201003 64 205 0.0 5.0 0.00 0.00 0.00 29 1015.1
20260503200503 63 206 1.0 6.0 0.00 0.00 0.00 28 1015.2
20260503200004 63 206 2.0 9.0 0.00 0.00 0.00 28 1015.3
20260503195507 63 206 3.0 9.0 0.00 0.00 0.00 28 1015.4
20260503195005 63 206 3.0 8.0 0.00 0.00 0.00 29 1015.3
20260503194506 63 206 0.0 7.0 0.00 0.00 0.00 29 1015.4
20260503194004 63 205 2.0 7.0 0.00 0.00 0.00 30 1015.6
20260503193509 63 206 1.0 4.0 0.00 0.00 0.00 28 1015.6
20260503193028 63 206 1.0 8.0 0.00 0.00 0.00 29 1015.7
20260503192504 63 205 1.0 8.0 0.00 0.00 0.00 30 1015.9
20260503192002 63 205 1.0 6.0 0.00 0.00 0.00 30 1015.9
20260503191503 62 205 1.0 6.0 0.00 0.00 0.00 30 1016.0
20260503191003 62 205 1.0 9.0 0.00 0.00 0.00 31 1016.0
20260503190502 61 206 3.0 10.0 0.00 0.00 0.00 30 1016.1
20260503190004 61 205 2.0 10.0 0.00 0.00 0.00 30 1016.1
20260503185503 61 205 3.0 8.0 0.00 0.00 0.00 31 1016.2
20260503185003 61 205 2.0 7.0 0.00 0.00 0.00 31 1016.2
20260503184505 61 206 2.0 7.0 0.00 0.00 0.00 30 1016.2
20260503184004 61 206 1.0 11.0 0.00 0.00 0.00 32 1016.3
20260503183505 60 206 0.0 11.0 0.00 0.00 0.00 34 1016.3
20260503183006 61 206 4.0 10.0 0.00 0.00 0.00 30 1016.6
20260503182505 61 206 1.0 5.0 0.00 0.00 0.00 34 1016.5
20260503182008 60 206 1.0 8.0 0.00 0.00 0.00 35 1016.6
20260503181512 60 206 2.0 8.0 0.00 0.00 0.00 34 1016.5
20260503181007 60 206 1.0 6.0 0.00 0.00 0.00 35 1016.6
20260503180506 59 206 1.0 10.0 0.00 0.00 0.00 35 1016.5
20260503180003 58 206 1.0 10.0 0.00 0.00 0.00 35 1016.6
20260503175502 59 206 2.0 9.0 0.00 0.00 0.00 35 1016.7
20260503175003 59 206 1.0 6.0 0.00 0.00 0.00 35 1016.8
20260503174504 58 206 0.0 11.0 0.00 0.00 0.00 35 1016.8
20260503174003 58 206 2.0 11.0 0.00 0.00 0.00 37 1016.9
20260503173507 57 206 2.0 8.0 0.00 0.00 0.00 36 1016.9
20260503173015 57 205 0.0 8.0 0.00 0.00 0.00 36 1016.9
20260503172504 58 206 2.0 8.0 0.00 0.00 0.00 34 1016.9
20260503172004 58 205 2.0 8.0 0.00 0.00 0.00 35 1016.8
20260503171507 57 205 3.0 6.0 0.00 0.00 0.00 34 1017.0
20260503171009 57 206 1.0 9.0 0.00 0.00 0.00 35 1017.0
20260503170503 57 206 4.0 9.0 0.00 0.00 0.00 35 1016.9